When you browse on this site, cookies collect data to enhance your experience and personalize the content and advertising you see.
Visit our Privacy Policy to learn more. By continuing to use the site, you agree to this use of cookies and data.
  • In Netherlands
  • List of Countries
  • For 7 days
  • Water Temperature
  • Satellite Maps
  • Weather Map
  • Weather Widgets
  • user-avatar
    Login

    Hourly Weather Lezhe

    Today, 27 June, Thursday

    Time Temperature Precipitation Wind Pressure Humidity
    00:00 +22°C° 0 mm 3 mps 741 mmHg 74%
    01:00 +22°C° 0 mm 4 mps 741 mmHg 73%
    02:00 +22°C° 0 mm 4 mps 740 mmHg 73%
    03:00 +21°C° 0 mm 4 mps 740 mmHg 74%
    04:00 +21°C° 0 mm 4 mps 739 mmHg 74%
    05:00 +24°C° 0 mm 3 mps 740 mmHg 70%
    06:00 +26°C° 0 mm 3 mps 740 mmHg 66%
    07:00 +27°C° 0 mm 3 mps 740 mmHg 62%
    08:00 +29°C° 0 mm 3 mps 740 mmHg 56%
    09:00 +30°C° 0 mm 3 mps 740 mmHg 49%
    10:00 +33°C° 0 mm 3 mps 739 mmHg 43%
    11:00 +33°C° 0 mm 3 mps 739 mmHg 41%
    12:00 +34°C° 0 mm 3 mps 739 mmHg 39%
    13:00 +35°C° 0 mm 3 mps 739 mmHg 37%
    14:00 +34°C° 0 mm 3 mps 738 mmHg 38%
    15:00 +34°C° 0 mm 3 mps 738 mmHg 39%
    16:00 +34°C° 0 mm 4 mps 737 mmHg 41%
    17:00 +31°C° 0 mm 3 mps 737 mmHg 48%
    18:00 +29°C° 0 mm 3 mps 737 mmHg 55%
    19:00 +27°C° 0 mm 2 mps 736 mmHg 62%
    20:00 +26°C° 0 mm 2 mps 737 mmHg 63%
    21:00 +25°C° 0 mm 2 mps 737 mmHg 64%
    22:00 +24°C° 0 mm 2 mps 737 mmHg 65%
    23:00 +24°C° 0 mm 2 mps 737 mmHg 66%

    Tomorrow, 28 June, Friday

    Time Temperature Precipitation Wind Pressure Humidity
    00:00 +24°C° 0 mm 2 mps 737 mmHg 67%
    01:00 +23°C° 0 mm 2 mps 737 mmHg 68%
    02:00 +23°C° 0 mm 2 mps 736 mmHg 69%
    03:00 +23°C° 0 mm 2 mps 736 mmHg 70%
    04:00 +21°C° 0 mm 2 mps 736 mmHg 71%
    05:00 +24°C° 0 mm 2 mps 736 mmHg 68%
    06:00 +26°C° 0 mm 2 mps 736 mmHg 65%
    07:00 +28°C° 0 mm 2 mps 736 mmHg 61%
    08:00 +29°C° 0 mm 2 mps 736 mmHg 55%
    09:00 +31°C° 0 mm 3 mps 736 mmHg 49%
    10:00 +33°C° 0 mm 4 mps 736 mmHg 43%
    11:00 +33°C° 0 mm 4 mps 736 mmHg 42%
    12:00 +34°C° 0 mm 4 mps 736 mmHg 42%
    13:00 +34°C° 0 mm 5 mps 736 mmHg 41%
    14:00 +33°C° 0 mm 5 mps 736 mmHg 42%
    15:00 +33°C° 0 mm 5 mps 735 mmHg 43%
    16:00 +32°C° 0 mm 5 mps 735 mmHg 43%
    17:00 +29°C° 0 mm 5 mps 735 mmHg 48%
    18:00 +27°C° 0 mm 5 mps 736 mmHg 53%
    19:00 +25°C° 0 mm 5 mps 736 mmHg 58%
    20:00 +25°C° 0 mm 5 mps 736 mmHg 59%
    21:00 +23°C° 0 mm 5 mps 736 mmHg 61%
    22:00 +22°C° 0 mm 6 mps 737 mmHg 62%
    23:00 +21°C° 0 mm 6 mps 737 mmHg 63%

    Day after tomorrow, 29 June, Saturday

    Time Temperature Precipitation Wind Pressure Humidity
    00:00 +20°C° 0 mm 6 mps 737 mmHg 64%
    01:00 +19°C° 0 mm 6 mps 737 mmHg 65%
    02:00 +19°C° 0 mm 6 mps 737 mmHg 66%
    03:00 +17°C° 0 mm 6 mps 737 mmHg 67%
    04:00 +17°C° 0 mm 6 mps 736 mmHg 68%
    05:00 +19°C° 0 mm 6 mps 737 mmHg 64%
    06:00 +21°C° 0 mm 6 mps 737 mmHg 59%
    07:00 +22°C° 0 mm 6 mps 737 mmHg 54%
    08:00 +23°C° 0 mm 6 mps 737 mmHg 49%
    09:00 +26°C° 0 mm 6 mps 737 mmHg 43%
    10:00 +27°C° 0 mm 7 mps 738 mmHg 38%
    11:00 +28°C° 0 mm 6 mps 738 mmHg 37%
    12:00 +28°C° 0 mm 6 mps 738 mmHg 36%
    13:00 +29°C° 0 mm 6 mps 738 mmHg 36%
    14:00 +29°C° 0 mm 6 mps 738 mmHg 36%
    15:00 +29°C° 0 mm 6 mps 738 mmHg 37%
    16:00 +29°C° 0 mm 5 mps 737 mmHg 38%
    17:00 +27°C° 0 mm 5 mps 738 mmHg 46%
    18:00 +25°C° 0 mm 4 mps 738 mmHg 53%
    19:00 +22°C° 0 mm 4 mps 738 mmHg 60%
    20:00 +21°C° 0 mm 4 mps 738 mmHg 61%
    21:00 +20°C° 0 mm 4 mps 739 mmHg 63%
    22:00 +19°C° 0 mm 4 mps 739 mmHg 64%
    23:00 +19°C° 0 mm 4 mps 739 mmHg 66%

    30 June, Sunday

    Time Temperature Precipitation Wind Pressure Humidity
    00:00 +18°C° 0 mm 4 mps 739 mmHg 67%
    01:00 +18°C° 0 mm 4 mps 739 mmHg 69%
    02:00 +18°C° 0 mm 4 mps 739 mmHg 70%
    03:00 +17°C° 0 mm 4 mps 739 mmHg 71%
    04:00 +17°C° 0 mm 4 mps 739 mmHg 72%
    05:00 +18°C° 0 mm 4 mps 739 mmHg 68%
    06:00 +20°C° 0 mm 4 mps 739 mmHg 63%
    07:00 +22°C° 0 mm 4 mps 739 mmHg 59%
    08:00 +25°C° 0 mm 4 mps 740 mmHg 53%
    09:00 +26°C° 0 mm 4 mps 740 mmHg 48%
    10:00 +28°C° 0 mm 4 mps 740 mmHg 42%
    11:00 +29°C° 0 mm 4 mps 740 mmHg 40%
    12:00 +30°C° 0 mm 4 mps 740 mmHg 38%
    13:00 +32°C° 0 mm 4 mps 740 mmHg 37%
    14:00 +32°C° 0 mm 4 mps 740 mmHg 38%
    15:00 +32°C° 0 mm 4 mps 739 mmHg 39%
    16:00 +32°C° 0 mm 4 mps 739 mmHg 40%
    17:00 +29°C° 0 mm 3 mps 739 mmHg 47%
    18:00 +27°C° 0 mm 3 mps 739 mmHg 54%
    19:00 +25°C° 0 mm 2 mps 739 mmHg 61%
    20:00 +24°C° 0 mm 2 mps 740 mmHg 61%
    21:00 +22°C° 0 mm 3 mps 740 mmHg 62%
    22:00 +21°C° 0 mm 3 mps 740 mmHg 63%
    23:00 +20°C° 0 mm 3 mps 740 mmHg 64%

    1 July, Monday

    Time Temperature Precipitation Wind Pressure Humidity
    00:00 +20°C° 0 mm 2 mps 740 mmHg 65%
    01:00 +20°C° 0 mm 2 mps 740 mmHg 66%
    02:00 +19°C° 0 mm 2 mps 740 mmHg 66%
    03:00 +19°C° 0 mm 2 mps 740 mmHg 67%
    04:00 +19°C° 0 mm 2 mps 740 mmHg 67%
    05:00 +20°C° 0 mm 2 mps 740 mmHg 63%
    06:00 +23°C° 0 mm 2 mps 740 mmHg 59%
    07:00 +25°C° 0 mm 2 mps 740 mmHg 56%
    08:00 +27°C° 0 mm 1 mps 740 mmHg 50%
    09:00 +30°C° 0 mm 1 mps 740 mmHg 45%
    10:00 +32°C° 0 mm 1 mps 740 mmHg 39%
    11:00 +32°C° 0 mm 1 mps 740 mmHg 38%
    12:00 +34°C° 0 mm 2 mps 740 mmHg 37%
    13:00 +34°C° 0 mm 2 mps 739 mmHg 36%
    14:00 +34°C° 0 mm 2 mps 739 mmHg 38%
    15:00 +32°C° 0 mm 2 mps 739 mmHg 41%
    16:00 +32°C° 0 mm 2 mps 739 mmHg 43%
    17:00 +30°C° 0 mm 2 mps 739 mmHg 51%
    18:00 +28°C° 0 mm 1 mps 738 mmHg 59%
    19:00 +26°C° 0 mm 1 mps 738 mmHg 67%
    20:00 +25°C° 0 mm 1 mps 738 mmHg 68%
    21:00 +24°C° 0 mm 1 mps 739 mmHg 68%
    22:00 +24°C° 0 mm 1 mps 739 mmHg 69%
    23:00 +23°C° 0 mm 1 mps 739 mmHg 69%

    2 July, Tuesday

    Time Temperature Precipitation Wind Pressure Humidity
    00:00 +23°C° 0 mm 1 mps 738 mmHg 69%
    01:00 +23°C° 0 mm 1 mps 738 mmHg 69%
    02:00 +22°C° 0 mm 1 mps 738 mmHg 69%
    03:00 +22°C° 0 mm 1 mps 738 mmHg 68%
    04:00 +22°C° 0 mm 1 mps 738 mmHg 68%
    05:00 +24°C° 0 mm 1 mps 738 mmHg 64%
    06:00 +26°C° 0 mm 1 mps 738 mmHg 59%
    07:00 +26°C° 0 mm 0 mps 738 mmHg 55%
    08:00 +29°C° 0 mm 1 mps 738 mmHg 51%
    09:00 +31°C° 0 mm 1 mps 738 mmHg 47%
    10:00 +33°C° 0 mm 1 mps 737 mmHg 44%
    11:00 +33°C° 0 mm 1 mps 737 mmHg 42%
    12:00 +35°C° 0 mm 2 mps 737 mmHg 41%
    13:00 +35°C° 0 mm 3 mps 736 mmHg 40%
    14:00 +35°C° 0 mm 3 mps 736 mmHg 42%
    15:00 +34°C° 0 mm 2 mps 736 mmHg 45%
    16:00 +32°C° 0 mm 2 mps 736 mmHg 47%
    17:00 +30°C° 0 mm 2 mps 736 mmHg 56%
    18:00 +28°C° 0 mm 1 mps 736 mmHg 64%
    19:00 +26°C° 0 mm 1 mps 736 mmHg 72%
    20:00 +26°C° 0 mm 1 mps 736 mmHg 73%
    21:00 +25°C° 0 mm 1 mps 736 mmHg 74%
    22:00 +24°C° 0 mm 1 mps 736 mmHg 76%
    23:00 +24°C° 0 mm 1 mps 736 mmHg 74%
    Show more